This demonstration page uses our WeatherBlox Daily Observations layout. Learn more.

40.92945, -100.16068

Hourly Observations for June 15, 2018

Temp ( °F °C ) Dew Point ( °F °C ) Humidity (%) Winds ( mph kmh ) Pressure ( in mb ) Visibility ( mi km ) Precip ( " mm )
12:15 am 00:15 Clear 84 28.7 60 15.7 45 45 S 20 31 29.53 1000 10 16.0934 0 0
12:35 am 00:35 Clear with Nearby Thunderstorms 83 28.2 61 16 48 48 S 18 30 29.53 1000 10 16.0934 0 0
12:55 am 00:55 Clear 82 28 60 15.7 47 47 S 12 19 29.53 1000 10 16.0934 0 0
1:15 am 01:15 Clear 81 27.4 59 14.9 46 46 S 9 15 29.56 1001 10 16.0934 0 0
1:35 am 01:35 Clear 79 26.3 58 14.4 48 48 SSW 9 15 29.59 1002 10 16.0934 0 0
1:55 am 01:55 Clear 77 25.2 57 14 50 50 SSE 3 6 29.56 1001 10 16.0934 0 0
2:15 am 02:15 Clear 77 25.2 56 13.3 48 48 SSW 3 6 29.56 1001 10 16.0934 0 0
2:35 am 02:35 Clear 71 21.4 59 14.9 67 67 WNW 5 7 29.59 1002 10 16.0934 0 0
2:55 am 02:55 Clear 71 21.9 58 14.4 63 63 SE 5 7 29.59 1002 10 16.0934 0 0
3:15 am 03:15 Clear 69 20.4 58 14.3 68 68 ESE 5 7 29.59 1002 10 16.0934 0 0
3:35 am 03:35 Clear 70 20.9 56 13.6 63 63 SSE 10 17 29.59 1002 10 16.0934 0 0
3:55 am 03:55 Clear 72 22.2 55 12.8 55 55 SSE 9 15 29.59 1002 10 16.0934 0 0
4:15 am 04:15 Clear 74 23.3 55 12.8 52 52 S 9 15 29.59 1002 10 16.0934 0 0
4:35 am 04:35 Clear 78 25.6 60 15.3 53 53 S 9 15 29.56 1001 10 16.0934 0 0
4:55 am 04:55 Clear 78 25.4 60 15.5 54 54 S 10 17 29.56 1001 10 16.0934 0 0
5:15 am 05:15 Clear 78 25.8 60 15.3 52 52 S 15 24 29.56 1001 10 16.0934 0 0
5:35 am 05:35 Clear 77 25.1 60 15.5 55 55 S 15 24 29.56 1001 10 16.0934 0 0
5:55 am 05:55 Clear 77 24.8 60 15.5 56 56 S 14 22 29.56 1001 10 16.0934 0 0
6:15 am 06:15 Sunny 76 24.4 60 15.3 57 57 S 14 22 29.56 1001 10 16.0934 0 0
6:35 am 06:35 Sunny 75 24 60 15.4 59 59 S 15 24 29.56 1001 10 16.0934 0 0
6:55 am 06:55 Sunny 75 24 60 15.3 58 58 S 13 20 29.62 1003 10 16.0934 0 0
7:15 am 07:15 Sunny 75 24 60 15.5 59 59 S 10 17 29.62 1003 10 16.0934 0 0
7:35 am 07:35 Sunny 76 24.2 60 15.7 59 59 S 12 19 29.59 1002 10 16.0934 0 0
7:55 am 07:55 Sunny 77 24.9 60 15.8 57 57 S 17 28 29.59 1002 10 16.0934 0 0
8:15 am 08:15 Sunny 78 25.5 60 15.7 55 55 S 18 30 29.59 1002 10 16.0934 0 0
8:35 am 08:35 Sunny 76 24.5 59 15.1 56 56 S 16 26 29.59 1002 10 16.0934 0 0
8:55 am 08:55 Sunny 76 24.6 59 15.2 56 56 SSW 16 26 29.59 1002 10 16.0934 0 0
9:15 am 09:15 Sunny 76 24.5 60 15.8 58 58 NW 3 6 29.62 1003 10 16.0934 0 0
9:35 am 09:35 Sunny 78 25.6 61 16.2 56 56 SSW 8 13 29.62 1003 10 16.0934 0 0
9:55 am 09:55 Sunny 79 26.2 62 16.8 56 56 SW 6 9 29.62 1003 10 16.0934 0 0
10:15 am 10:15 Sunny 84 28.7 63 17.1 49 49 SSW 6 9 29.56 1001 10 16.0934 0 0
10:35 am 10:35 Sunny 85 29.4 63 17.1 48 48 SSW 9 15 29.56 1001 10 16.0934 0 0
10:55 am 10:55 Sunny 86 30.1 61 16 43 43 S 12 19 29.56 1001 10 16.0934 0 0
11:15 am 11:15 Sunny 88 30.9 62 16.6 42 42 S 10 17 29.56 1001 10 16.0934 0 0
11:35 am 11:35 Sunny 87 30.6 61 16 41 41 S 12 19 29.56 1001 10 16.0934 0 0
11:55 am 11:55 Sunny 88 31 61 16.2 41 41 SSE 12 19 29.56 1001 10 16.0934 0 0
12:15 pm 12:15 Sunny 90 32.1 61 16 38 38 SSE 13 20 29.53 1000 10 16.0934 0 0
12:35 pm 12:35 Sunny 91 32.6 61 16.2 37 37 SSE 10 17 29.53 1000 10 16.0934 0 0
12:55 pm 12:55 Sunny 92 33.3 61 16.1 36 36 S 14 22 29.5 999 10 16.0934 0 0
1:15 pm 13:15 Sunny 92 33.6 61 15.9 35 35 S 12 19 29.5 999 10 16.0934 0 0
1:35 pm 13:35 Sunny 92 33.6 61 16 35 35 S 10 17 29.5 999 10 16.0934 0 0
1:55 pm 13:55 Sunny 94 34.3 61 15.9 33 33 SSE 14 22 29.5 999 10 16.0934 0 0
2:15 pm 14:15 Sunny 94 34.6 61 16.1 33 33 SSE 14 22 29.5 999 10 16.0934 0 0
2:35 pm 14:35 Sunny 96 35.5 61 16.3 32 32 S 15 24 29.47 998 10 16.0934 0 0
2:55 pm 14:55 Sunny 96 35.7 60 15.8 30 30 S 13 20 29.47 998 10 16.0934 0 0
3:15 pm 15:15 Sunny 97 36.2 60 15.4 29 29 S 14 22 29.47 998 10 16.0934 0 0
3:35 pm 15:35 Sunny 98 36.7 59 15.1 28 28 SSE 13 20 29.47 998 10 16.0934 0 0
3:55 pm 15:55 Sunny 99 37 58 14.7 26 26 S 17 28 29.47 998 10 16.0934 0 0
4:15 pm 16:15 Sunny 99 37 59 15 27 27 S 20 31 29.47 998 10 16.0934 0 0
4:35 pm 16:35 Sunny 99 37.1 60 15.5 28 28 S 9 15 29.47 998 10 16.0934 0 0
4:55 pm 16:55 Sunny 99 37.1 59 14.9 27 27 SSE 20 31 29.47 998 10 16.0934 0 0
5:15 pm 17:15 Sunny 98 36.6 59 15 27 27 S 15 24 29.44 997 10 16.0934 0 0
5:35 pm 17:35 Sunny 97 36.3 58 14.6 27 27 S 16 26 29.44 997 10 16.0934 0 0
5:55 pm 17:55 Sunny 97 35.9 58 14.7 28 28 SSE 10 17 29.44 997 10 16.0934 0 0
6:15 pm 18:15 Sunny 98 36.6 60 15.7 29 29 SSE 12 19 29.41 996 10 16.0934 0 0
6:35 pm 18:35 Sunny 98 36.9 60 15.4 28 28 SSE 14 22 29.41 996 10 16.0934 0 0
6:55 pm 18:55 Sunny 98 36.5 57 14.1 26 26 SSE 16 26 29.41 996 10 16.0934 0 0
7:15 pm 19:15 Sunny 97 36 58 14.3 27 27 SSE 13 20 29.41 996 10 16.0934 0 0
7:35 pm 19:35 Sunny 96 35.4 60 15.4 30 30 SSE 14 22 29.41 996 10 16.0934 0 0
7:55 pm 19:55 Sunny 94 34.3 60 15.5 32 32 SSE 14 22 29.47 998 10 16.0934 0 0
8:15 pm 20:15 Sunny 92 33.5 60 15.6 34 34 SSE 13 20 29.47 998 10 16.0934 0 0
8:35 pm 20:35 Sunny 92 33.1 59 15 34 34 SSE 15 24 29.47 998 10 16.0934 0 0
8:55 pm 20:55 Sunny 91 32.5 58 14.7 34 34 SSE 15 24 29.47 998 10 16.0934 0 0
9:15 pm 21:15 Clear 90 32 58 14.4 34 34 SSE 17 28 29.47 998 10 16.0934 0 0
9:35 pm 21:35 Clear 89 31.7 57 14 34 34 SSE 18 30 29.47 998 10 16.0934 0 0
9:55 pm 21:55 Clear 89 31.8 56 13.6 33 33 S 21 33 29.5 999 10 16.0934 0 0
10:15 pm 22:15 Clear with Rain 83 28.1 63 17.1 51 51 SSW 32 52 29.53 1000 7 11.26538 0.01 0.254
10:35 pm 22:35 Partly Cloudy with Rain 76 24.6 65 18.3 68 68 S 35 56 29.56 1001 7 11.26538 0.06 1.524
10:55 pm 22:55 Partly Cloudy 75 24.1 66 18.8 72 72 S 22 35 29.62 1003 10 16.0934 0.08 2.032
11:15 pm 23:15 Mostly Cloudy with Light Rain 81 27 63 17.4 56 56 SE 14 22 29.59 1002 10 16.0934 0.05 1.27
11:35 pm 23:35 Partly Cloudy with Thunderstorms 80 26.8 63 17.1 55 55 ESE 15 24 29.59 1002 10 16.0934 0.05 1.27
11:55 pm 23:55 Clear with Thunderstorms 82 27.8 62 16.6 51 51 SE 13 20 29.56 1001 10 16.0934 0.05 1.27

Powered by AerisWeather